When you browse on this site, cookies collect data to enhance your experience and personalize the content and advertising you see.
Visit our Privacy Policy to learn more. By continuing to use the site, you agree to this use of cookies and data.
  • In Austria
  • List of Countries
  • For 7 days
  • Water Temperature
  • Satellite Maps
  • Weather Map
  • News
  • Weather Widgets
  • user-avatar
    Login

    Hourly Weather Ringkøbing

    Today, 25 April, Thursday

    Time Temperature Precipitation Wind Pressure Humidity
    00:00 +10°C° 0 mm 6 mps 756 mmHg 73%
    01:00 +10°C° 0 mm 5 mps 756 mmHg 75%
    02:00 +10°C° 0 mm 5 mps 755 mmHg 77%
    03:00 +10°C° 0 mm 6 mps 755 mmHg 78%
    04:00 +10°C° 0 mm 6 mps 755 mmHg 80%
    05:00 +10°C° 0 mm 6 mps 755 mmHg 80%
    06:00 +10°C° 0 mm 6 mps 756 mmHg 81%
    07:00 +12°C° 0 mm 4 mps 756 mmHg 81%
    08:00 +13°C° 0 mm 4 mps 756 mmHg 81%
    09:00 +13°C° 0 mm 4 mps 756 mmHg 80%
    10:00 +14°C° 0 mm 4 mps 757 mmHg 80%
    11:00 +16°C° 0 mm 3 mps 757 mmHg 77%
    12:00 +17°C° 0 mm 3 mps 757 mmHg 74%
    13:00 +17°C° 0 mm 2 mps 758 mmHg 72%
    14:00 +18°C° 0 mm 2 mps 758 mmHg 68%
    15:00 +18°C° 0 mm 3 mps 758 mmHg 64%
    16:00 +19°C° 0 mm 3 mps 758 mmHg 60%
    17:00 +17°C° 0 mm 3 mps 758 mmHg 62%
    18:00 +16°C° 0 mm 2 mps 758 mmHg 65%
    19:00 +15°C° 0 mm 2 mps 758 mmHg 67%
    20:00 +15°C° 0 mm 2 mps 759 mmHg 68%
    21:00 +14°C° 0 mm 1 mps 759 mmHg 68%
    22:00 +13°C° 0 mm 1 mps 759 mmHg 68%
    23:00 +13°C° 0 mm 2 mps 759 mmHg 68%

    Tomorrow, 26 April, Friday

    Time Temperature Precipitation Wind Pressure Humidity
    00:00 +13°C° 0 mm 2 mps 759 mmHg 69%
    01:00 +11°C° 0 mm 3 mps 759 mmHg 70%
    02:00 +11°C° 0 mm 3 mps 758 mmHg 75%
    03:00 +11°C° 0 mm 4 mps 758 mmHg 81%
    04:00 +10°C° 0 mm 4 mps 758 mmHg 86%
    05:00 +11°C° 0 mm 4 mps 757 mmHg 86%
    06:00 +11°C° 0 mm 4 mps 757 mmHg 86%
    07:00 +11°C° 0 mm 4 mps 757 mmHg 86%
    08:00 +13°C° 0 mm 4 mps 756 mmHg 80%
    09:00 +14°C° 0 mm 4 mps 756 mmHg 74%
    10:00 +16°C° 0 mm 3 mps 756 mmHg 68%
    11:00 +17°C° 0 mm 3 mps 756 mmHg 63%
    12:00 +18°C° 0 mm 3 mps 755 mmHg 59%
    13:00 +19°C° 0 mm 3 mps 755 mmHg 54%
    14:00 +20°C° 0 mm 3 mps 755 mmHg 56%
    15:00 +20°C° 0 mm 3 mps 755 mmHg 57%
    16:00 +20°C° 0 mm 3 mps 754 mmHg 59%
    17:00 +19°C° 0.4 mm 2 mps 754 mmHg 66%
    18:00 +18°C° 0.4 mm 2 mps 754 mmHg 72%
    19:00 +16°C° 0.4 mm 2 mps 755 mmHg 79%
    20:00 +15°C° 0.5 mm 1 mps 755 mmHg 82%
    21:00 +15°C° 0.5 mm 1 mps 755 mmHg 85%
    22:00 +14°C° 0.5 mm 1 mps 755 mmHg 89%
    23:00 +14°C° 1.1 mm 1 mps 755 mmHg 90%

    Day after tomorrow, 27 April, Saturday

    Time Temperature Precipitation Wind Pressure Humidity
    00:00 +13°C° 1.1 mm 1 mps 755 mmHg 91%
    01:00 +13°C° 1.1 mm 1 mps 755 mmHg 92%
    02:00 +13°C° 0.9 mm 1 mps 755 mmHg 92%
    03:00 +12°C° 0.9 mm 2 mps 754 mmHg 93%
    04:00 +11°C° 0.9 mm 3 mps 754 mmHg 93%
    05:00 +10°C° 0.9 mm 3 mps 754 mmHg 93%
    06:00 +10°C° 0.9 mm 4 mps 754 mmHg 93%
    07:00 +9°C° 0.9 mm 5 mps 755 mmHg 93%
    08:00 +8°C° 0.8 mm 5 mps 755 mmHg 92%
    09:00 +8°C° 0.8 mm 6 mps 755 mmHg 91%
    10:00 +8°C° 0.8 mm 6 mps 755 mmHg 89%
    11:00 +8°C° 0.2 mm 5 mps 755 mmHg 88%
    12:00 +8°C° 0.2 mm 5 mps 755 mmHg 87%
    13:00 +8°C° 0.2 mm 4 mps 755 mmHg 85%
    14:00 +9°C° 0.2 mm 3 mps 756 mmHg 83%
    15:00 +10°C° 0.2 mm 3 mps 756 mmHg 80%
    16:00 +10°C° 0.2 mm 3 mps 756 mmHg 78%
    17:00 +10°C° 0 mm 2 mps 756 mmHg 78%
    18:00 +10°C° 0 mm 2 mps 756 mmHg 79%
    19:00 +9°C° 0 mm 2 mps 757 mmHg 79%
    20:00 +9°C° 0 mm 2 mps 757 mmHg 81%
    21:00 +8°C° 0 mm 2 mps 757 mmHg 84%
    22:00 +8°C° 0 mm 2 mps 758 mmHg 86%
    23:00 +7°C° 0 mm 2 mps 758 mmHg 87%

    28 April, Sunday

    Time Temperature Precipitation Wind Pressure Humidity
    00:00 +7°C° 0 mm 2 mps 758 mmHg 88%
    01:00 +7°C° 0 mm 3 mps 758 mmHg 89%
    02:00 +7°C° 0 mm 3 mps 758 mmHg 90%
    03:00 +7°C° 0 mm 3 mps 758 mmHg 91%
    04:00 +7°C° 0 mm 3 mps 758 mmHg 91%
    05:00 +6°C° 0 mm 4 mps 759 mmHg 90%
    06:00 +7°C° 0 mm 4 mps 759 mmHg 89%
    07:00 +7°C° 0 mm 5 mps 759 mmHg 88%
    08:00 +8°C° 0 mm 5 mps 760 mmHg 86%
    09:00 +8°C° 0 mm 5 mps 760 mmHg 85%
    10:00 +10°C° 0 mm 4 mps 760 mmHg 83%
    11:00 +9°C° 0 mm 5 mps 761 mmHg 80%
    12:00 +10°C° 0 mm 5 mps 761 mmHg 78%
    13:00 +10°C° 0 mm 5 mps 761 mmHg 75%
    14:00 +10°C° 0 mm 5 mps 762 mmHg 76%
    15:00 +10°C° 0 mm 5 mps 762 mmHg 77%
    16:00 +11°C° 0 mm 4 mps 763 mmHg 78%
    17:00 +11°C° 0 mm 4 mps 763 mmHg 81%
    18:00 +11°C° 0 mm 4 mps 763 mmHg 84%
    19:00 +10°C° 0 mm 3 mps 763 mmHg 87%
    20:00 +10°C° 0.3 mm 3 mps 764 mmHg 87%
    21:00 +10°C° 0.3 mm 4 mps 764 mmHg 87%
    22:00 +8°C° 0.3 mm 4 mps 765 mmHg 88%
    23:00 +7°C° 1.4 mm 4 mps 765 mmHg 87%

    29 April, Monday

    Time Temperature Precipitation Wind Pressure Humidity
    00:00 +7°C° 1.4 mm 4 mps 765 mmHg 86%
    01:00 +6°C° 1.4 mm 4 mps 765 mmHg 85%
    02:00 +6°C° 0.7 mm 4 mps 765 mmHg 83%
    03:00 +6°C° 0.7 mm 4 mps 765 mmHg 81%
    04:00 +5°C° 0.7 mm 4 mps 765 mmHg 79%
    05:00 +6°C° 0 mm 5 mps 765 mmHg 78%
    06:00 +6°C° 0 mm 5 mps 765 mmHg 76%
    07:00 +6°C° 0 mm 5 mps 766 mmHg 74%
    08:00 +8°C° 0 mm 5 mps 766 mmHg 71%
    09:00 +9°C° 0 mm 5 mps 766 mmHg 67%
    10:00 +10°C° 0 mm 5 mps 767 mmHg 64%
    11:00 +12°C° 0 mm 5 mps 767 mmHg 59%
    12:00 +13°C° 0 mm 4 mps 767 mmHg 53%
    13:00 +14°C° 0 mm 4 mps 767 mmHg 48%
    14:00 +14°C° 0 mm 4 mps 767 mmHg 48%
    15:00 +14°C° 0 mm 4 mps 767 mmHg 47%
    16:00 +14°C° 0 mm 4 mps 767 mmHg 46%
    17:00 +13°C° 0 mm 3 mps 767 mmHg 50%
    18:00 +12°C° 0 mm 3 mps 767 mmHg 55%
    19:00 +11°C° 0 mm 3 mps 767 mmHg 59%
    20:00 +9°C° 0 mm 3 mps 767 mmHg 61%
    21:00 +8°C° 0 mm 3 mps 768 mmHg 62%
    22:00 +7°C° 0 mm 3 mps 768 mmHg 63%
    23:00 +5°C° 0 mm 3 mps 768 mmHg 63%

    30 April, Tuesday

    Time Temperature Precipitation Wind Pressure Humidity
    00:00 +6°C° 0 mm 2 mps 768 mmHg 63%
    01:00 +5°C° 0 mm 2 mps 768 mmHg 63%
    02:00 +4°C° 0 mm 3 mps 768 mmHg 63%
    03:00 +4°C° 0 mm 3 mps 768 mmHg 64%
    04:00 +3°C° 0 mm 3 mps 768 mmHg 64%
    05:00 +4°C° 0 mm 3 mps 768 mmHg 61%
    06:00 +4°C° 0 mm 3 mps 768 mmHg 58%
    07:00 +5°C° 0 mm 3 mps 768 mmHg 55%
    08:00 +7°C° 0 mm 3 mps 768 mmHg 49%
    09:00 +9°C° 0 mm 3 mps 768 mmHg 44%
    10:00 +10°C° 0 mm 2 mps 768 mmHg 38%
    11:00 +12°C° 0 mm 2 mps 768 mmHg 37%
    12:00 +13°C° 0 mm 2 mps 768 mmHg 35%
    13:00 +14°C° 0 mm 2 mps 768 mmHg 33%
    14:00 +14°C° 0 mm 2 mps 767 mmHg 35%
    15:00 +15°C° 0 mm 1 mps 767 mmHg 36%
    16:00 +15°C° 0 mm 1 mps 767 mmHg 38%
    17:00 +14°C° 0 mm 1 mps 767 mmHg 44%
    18:00 +12°C° 0 mm 1 mps 767 mmHg 51%
    19:00 +11°C° 0 mm 1 mps 766 mmHg 57%
    20:00 +10°C° 0 mm 1 mps 767 mmHg 58%
    21:00 +9°C° 0 mm 1 mps 767 mmHg 59%
    22:00 +9°C° 0 mm 1 mps 767 mmHg 60%
    23:00 +8°C° 0 mm 1 mps 767 mmHg 60%
    Show more